Location: Unspecified
(0.0000°N, 0.0000°E)
Time: 07:36:49
(UTC+00:00)

Vanguard 2 Rocket - Pass Details

Date: 03 October 2023
Orbit: 552 x 3312 km, 32.9° (Epoch: 06 December)

Event Time Altitude Azimuth Distance (km) Brightness Sun altitude
Rises 06:22:46 0° 245° (WSW) 3,648 9.5 8.4°
Reaches altitude 10° 06:24:55 10° 248° (WSW) 2,936 9.0 8.9°
Maximum altitude 06:32:13 64° 329° (NNW) 1,717 8.3 10.7°
Drops below altitude 10° 06:45:29 10° 47° (NE) 5,109 11.5 14.0°
Sets 06:50:30 0° 50° (NE) 6,516 12.0 15.3°
